DW9615 Home Hill AU current weather conditions

sailwx.info

Wind from 140

Air temperature 23.9° C
Dewpoint 19.2° C

Last reported at 2014-Nov-28 12:46 UTC.
Time now 2014-Nov-28 13:26 UTC

Location: S 19°40' E 147°25'.
View on Google Maps.

See reports from other nearby stations

  
Tides and Currents Weather Stations Pressure Air Temp Water Temp Dewpoint Dewpoint Depression Visibility Wind Speed Wind Dir Waves Ship Positions
date/time (UTC)wind fromknots sea level pressurealtimeterstation pressurevisibilityair tempwater tempwave heightnotes
2014-Nov-28 12:46 140 23.9
2014-Nov-28 12:31 171 23.9
2014-Nov-28 12:16 070 1 gusting 4 24.4
2014-Nov-28 12:01 094 0 gusting 6 25.0
2014-Nov-28 11:46 079 2 gusting 9 25.0
2014-Nov-28 11:31 112 3 gusting 10 25.6
2014-Nov-28 11:16 121 3 gusting 8 25.6
2014-Nov-28 11:01 090 5 gusting 8 25.6
2014-Nov-28 10:46 112 5 gusting 10 25.6
2014-Nov-28 10:31 087 5 gusting 11 25.6
2014-Nov-28 10:16 104 5 gusting 13 25.6
2014-Nov-28 10:01 109 4 gusting 9 25.6
2014-Nov-28 09:46 105 4 gusting 13 26.1
2014-Nov-28 09:31 059 6 gusting 13 26.1
2014-Nov-28 09:16 157 5 gusting 13 26.1
2014-Nov-28 09:01 079 3 gusting 9 26.1
2014-Nov-28 08:46 091 6 gusting 13 26.1
2014-Nov-28 08:31 100 5 gusting 13 26.7
2014-Nov-28 08:15 083 7 gusting 14 26.7
2014-Nov-28 08:00 056 6 gusting 13 27.2
2014-Nov-28 07:46 098 5 gusting 14 27.2
2014-Nov-28 07:30 071 6 gusting 12 27.8
2014-Nov-28 07:16 107 6 gusting 13 28.3
2014-Nov-28 07:00 046 6 gusting 15 28.3
2014-Nov-28 06:45 072 6 gusting 13 28.9
2014-Nov-28 05:45 068 7 gusting 12 29.4
2014-Nov-28 05:30 081 4 gusting 14 30.0
2014-Nov-28 05:15 059 5 gusting 13 30.0
2014-Nov-28 05:00 118 6 gusting 12 30.0
2014-Nov-28 04:45 080 6 gusting 15 30.0
2014-Nov-28 04:30 098 5 gusting 15 30.6
2014-Nov-28 04:15 093 6 gusting 12 30.0
2014-Nov-28 04:00 094 6 gusting 14 30.0
2014-Nov-28 03:45 114 8 gusting 13 30.0
2014-Nov-28 03:30 067 7 gusting 13 30.6
2014-Nov-28 03:15 149 7 gusting 13 30.6
2014-Nov-28 03:00 059 8 gusting 15 30.6
2014-Nov-28 02:45 083 7 gusting 13 30.6
2014-Nov-28 02:30 059 6 gusting 11 30.6
2014-Nov-28 02:15 090 7 gusting 13 30.0
2014-Nov-28 02:00 088 5 gusting 13 30.6
2014-Nov-28 01:45 109 6 gusting 12 30.0
2014-Nov-28 01:30 098 5 gusting 13 30.6
2014-Nov-28 01:15 108 6 gusting 12 30.0
2014-Nov-28 01:00 091 5 gusting 11 30.0
2014-Nov-28 00:45 100 7 gusting 13 29.4
2014-Nov-28 00:30 063 4 gusting 10 30.6
2014-Nov-28 00:15 076 4 gusting 10 30.0
2014-Nov-28 00:00 158 3 gusting 10 29.4
2014-Nov-27 23:45 105 2 gusting 7 28.9
2014-Nov-27 23:30 091 2 gusting 9 28.9
2014-Nov-27 23:15 102 1 gusting 9 28.9
2014-Nov-27 23:00 136 2 gusting 8 28.3
2014-Nov-27 22:45 115 3 gusting 9 28.3
2014-Nov-27 22:30 091 5 gusting 10 28.3
2014-Nov-27 22:15 144 1 gusting 8 27.8
2014-Nov-27 21:59 074 3 gusting 7 27.8
2014-Nov-27 21:44 104 1 gusting 7 27.8
2014-Nov-27 21:29 147 2 gusting 6 26.7
2014-Nov-27 21:14 140 3 gusting 6 25.6
2014-Nov-27 20:59 135 2 gusting 6 25.0
2014-Nov-27 20:44 148 1 gusting 4 23.9
2014-Nov-27 20:29 169 22.8
2014-Nov-27 20:14 150 22.2
2014-Nov-27 19:59 183 21.7
2014-Nov-27 19:44 183 21.1
2014-Nov-27 19:29 182 20.6
2014-Nov-27 19:14 182 20.6
2014-Nov-27 18:59 183 20.6
2014-Nov-27 18:44 182 20.6
2014-Nov-27 18:29 182 21.1
2014-Nov-27 18:14 158 20.6
2014-Nov-27 17:59 158 20.6
2014-Nov-27 17:44 159 21.1
2014-Nov-27 17:29 158 21.1
2014-Nov-27 17:14 155 21.7
2014-Nov-27 16:59 156 21.7
2014-Nov-27 16:44 181 22.2
2014-Nov-27 16:29 181 22.2
2014-Nov-27 16:14 180 22.8
2014-Nov-27 15:59 189 22.8
2014-Nov-27 15:44 187 22.8
2014-Nov-27 15:29 190 22.8
2014-Nov-27 15:14 157 23.3
2014-Nov-27 14:58 100 23.9
2014-Nov-27 14:43 081 23.9
2014-Nov-27 14:28 066 23.9
2014-Nov-27 14:13 091 23.9
2014-Nov-27 13:58 091 23.9
2014-Nov-27 13:43 097 23.9
2014-Nov-27 13:28 102 24.4
2014-Nov-27 13:13 079 0 gusting 3 24.4
2014-Nov-27 12:58 090 0 gusting 3 24.4
2014-Nov-27 12:43 075 0 gusting 3 25.0
2014-Nov-27 12:28 083 0 gusting 4 25.0
2014-Nov-27 12:13 076 0 gusting 3 25.0
2014-Nov-27 11:58 095 25.0
2014-Nov-27 11:43 105 1 gusting 5 25.0
2014-Nov-27 11:28 087 1 gusting 4 25.0
2014-Nov-27 11:13 088 0 gusting 5 25.0
2014-Nov-27 10:58 075 0 gusting 4 25.0
2014-Nov-27 10:43 088 0 gusting 3 25.0
2014-Nov-27 10:28 072 0 gusting 3 25.0
2014-Nov-27 10:13 075 1 gusting 3 25.0
2014-Nov-27 09:58 083 1 gusting 4 25.6
2014-Nov-27 09:43 086 1 gusting 4 25.6
2014-Nov-27 09:28 077 0 gusting 4 25.6
2014-Nov-27 09:13 075 2 gusting 5 26.1
2014-Nov-27 08:58 079 1 gusting 5 26.1
2014-Nov-27 08:44 083 3 gusting 6 26.7
2014-Nov-27 08:28 087 3 gusting 6 26.7
2014-Nov-27 07:29 093 2 gusting 8 27.8
2014-Nov-27 07:13 059 3 gusting 8 28.3
2014-Nov-27 06:58 069 4 gusting 10 28.3
2014-Nov-27 06:43 126 6 gusting 12 28.3
2014-Nov-27 06:28 077 5 gusting 11 28.9
2014-Nov-27 06:13 069 5 gusting 10 28.3
2014-Nov-27 05:58 108 4 gusting 11 28.9
2014-Nov-27 05:43 032 6 gusting 11 29.4
2014-Nov-27 05:28 074 4 gusting 10 29.4
2014-Nov-27 05:13 140 4 gusting 9 29.4
2014-Nov-27 04:58 109 5 gusting 9 29.4
2014-Nov-27 04:43 077 6 gusting 13 30.0
2014-Nov-27 04:28 102 6 gusting 11 30.6
2014-Nov-27 04:13 026 4 gusting 8 30.0
2014-Nov-27 03:58 107 3 gusting 12 30.0
2014-Nov-27 03:43 101 5 gusting 9 30.0
2014-Nov-27 03:28 087 4 gusting 9 30.6
2014-Nov-27 03:13 115 3 gusting 11 30.0
2014-Nov-27 02:58 101 5 gusting 8 30.0
2014-Nov-27 02:42 102 5 gusting 9 30.0
2014-Nov-27 02:27 111 4 gusting 12 29.4
2014-Nov-27 02:12 081 6 gusting 12 30.0
2014-Nov-27 01:57 108 3 gusting 10 29.4
2014-Nov-27 01:42 047 4 gusting 9 28.9
2014-Nov-27 01:27 054 3 gusting 13 29.4
2014-Nov-27 01:12 059 4 gusting 9 29.4
2014-Nov-27 00:57 067 3 gusting 10 28.9
2014-Nov-27 00:42 072 4 gusting 10 28.9
2014-Nov-27 00:27 090 3 gusting 13 28.9
2014-Nov-27 00:12 135 4 gusting 11 28.9
2014-Nov-26 23:57 096 5 gusting 7 28.9
2014-Nov-26 23:42 105 5 gusting 7 29.4
2014-Nov-26 23:27 156 2 gusting 9 28.9
2014-Nov-26 23:12 105 3 gusting 7 28.9
2014-Nov-26 22:57 289 2 gusting 6 28.3
2014-Nov-26 22:42 105 2 gusting 8 28.3
2014-Nov-26 22:27 118 0 gusting 6 28.3
2014-Nov-26 22:12 107 1 gusting 6 27.8
2014-Nov-26 21:57 088 2 gusting 6 27.8
2014-Nov-26 21:42 145 1 gusting 5 27.2
2014-Nov-26 21:27 159 1 gusting 5 26.7
2014-Nov-26 21:12 157 1 gusting 5 26.1
2014-Nov-26 20:57 139 1 gusting 5 25.6
2014-Nov-26 20:42 122 23.9
2014-Nov-26 20:27 160 0 gusting 3 22.8
2014-Nov-26 20:12 168 22.8
2014-Nov-26 19:57 183 22.2
2014-Nov-26 19:41 178 22.2
2014-Nov-26 19:26 220 22.2
2014-Nov-26 19:11 220 22.2
2014-Nov-26 18:56 231 22.2
2014-Nov-26 18:41 111 22.2
2014-Nov-26 18:26 111 22.8
2014-Nov-26 18:11 110 22.8
2014-Nov-26 17:56 140 22.8
2014-Nov-26 17:41 152 22.8
2014-Nov-26 17:26 152 22.8
2014-Nov-26 17:11 152 22.8
2014-Nov-26 16:56 197 23.3
2014-Nov-26 16:41 094 23.9
2014-Nov-26 16:26 084 23.3
2014-Nov-26 16:11 100 23.3
2014-Nov-26 15:56 102 23.9
2014-Nov-26 15:41 107 23.9
2014-Nov-26 15:26 072 0 gusting 2 23.9
2014-Nov-26 15:11 100 0 gusting 4 24.4
2014-Nov-26 14:56 087 0 gusting 3 24.4
2014-Nov-26 14:41 089 0 gusting 2 24.4
2014-Nov-26 14:26 104 0 gusting 3 24.4
2014-Nov-26 14:11 117 1 gusting 5 24.4
2014-Nov-26 13:56 108 0 gusting 4 24.4
2014-Nov-26 13:41 098 0 gusting 5 24.4
2014-Nov-26 13:26 086 1 gusting 4 24.4
2014-Nov-26 13:12 094 0 gusting 2 24.4